Minot, ND

9:16 PM CDT on June 23, 2017 (GMT -0500)
Minot International

Weather History for KMOT - October, 2012

Change the Weather History Date:

Saturday, October 27, 2012

  Actual Average Record
Temperature  
Mean Temperature 24 °F 39 °F  
Max Temperature 31 °F 49 °F 78 °F (1938)
Min Temperature 17 °F 29 °F -7 °F (1919)
Degree Days  
Heating Degree Days 41 26  
Month to date heating degree days 624 531  
Since 1 July heating degree days 834 851  
Cooling Degree Days 0 0  
Month to date cooling degree days 0 0  
Year to date cooling degree days 594 444  
Moisture  
Dew Point 16 °F    
Average Humidity 64    
Maximum Humidity 81    
Minimum Humidity 47    
Precipitation  
Precipitation 0.00 in 0.02 in 0.33 in (1984)
Month to date precipitation 1.87 1.04  
Year to date precipitation 12.80 15.94  
Sea Level Pressure  
Sea Level Pressure 30.31 in    
Wind  
Wind Speed 3 mph (WNW)    
Max Wind Speed 8 mph    
Max Gust Speed 12 mph    
Visibility 10 miles    
Events      
T = Trace of Precipitation, MM = Missing Value Source: NWS Daily Summary

Daily Weather History Graph

Daily Weather History Graph

Search for Another Location

Airport or City:

Trip Planner

Search our weather history database for the weather conditions in past years. The results will help you decide how hot, cold, wet, or windy it might be!

Date:

Astronomy

Oct. 27, 2012 Rise Set
Actual Time 8:23 AM CDT 6:33 PM CDT
Civil Twilight 7:51 AM CDT 7:05 PM CDT
Nautical Twilight 7:14 AM CDT 7:42 PM CDT
Astronomical Twilight 6:38 AM CDT 8:18 PM CDT
Moon 5:25 PM CDT (10/27) 6:14 AM CDT (10/27)
Length of Visible Light 11h 14m
Length of Day
10h 09m
Waxing Gibbous, 96% of the Moon is Illuminated
Oct 27
Waxing Gibbous
Oct 29
Full
Nov 6
Last Quarter
Nov 13
New
Nov 20
First Quarter

Hourly Weather History & Observations

Time (CDT) Temp. Windchill Dew Point Humidity Pressure Visibility Wind Dir Wind Speed Gust Speed Precip Events Conditions
12:54 AM 24.1 °F 18.2 °F 18.0 °F 77% 30.31 in 10.0 mi SW 4.6 mph - N/A   Overcast
1:54 AM 25.0 °F 19.3 °F 19.0 °F 78% 30.31 in 10.0 mi SW 4.6 mph - N/A   Overcast
2:54 AM 24.1 °F 16.0 °F 18.0 °F 77% 30.31 in 10.0 mi SW 6.9 mph - N/A   Mostly Cloudy
3:54 AM 24.1 °F 17.0 °F 18.0 °F 77% 30.31 in 10.0 mi SW 5.8 mph - N/A   Overcast
4:54 AM 24.1 °F 17.0 °F 18.0 °F 77% 30.30 in 10.0 mi SW 5.8 mph - N/A   Overcast
5:54 AM 25.0 °F 18.1 °F 18.0 °F 75% 30.30 in 10.0 mi SW 5.8 mph - N/A   Overcast
6:54 AM 25.0 °F 17.1 °F 19.0 °F 78% 30.32 in 10.0 mi SW 6.9 mph - N/A   Overcast
7:54 AM 26.1 °F - 19.0 °F 75% 30.32 in 10.0 mi Calm Calm - N/A   Overcast
8:54 AM 26.6 °F - 19.4 °F 74% 30.25 in 10.0 mi Calm Calm - N/A   Overcast
10:54 AM 27.0 °F - 19.0 °F 72% 30.34 in 10.0 mi Calm Calm - N/A   Overcast
11:54 AM 28.0 °F 21.7 °F 18.0 °F 66% 30.34 in 10.0 mi NW 5.8 mph - N/A   Overcast
12:54 PM 28.9 °F - 17.1 °F 61% 30.33 in 10.0 mi Calm Calm - N/A   Overcast
1:54 PM 30.0 °F 25.2 °F 16.0 °F 56% 30.31 in 10.0 mi NNW 4.6 mph - N/A   Overcast
2:54 PM 30.9 °F 26.2 °F 14.0 °F 50% 30.30 in 10.0 mi NW 4.6 mph - N/A   Overcast
3:54 PM 30.9 °F 26.2 °F 14.0 °F 50% 30.29 in 10.0 mi North 4.6 mph - N/A   Overcast
4:54 PM 30.9 °F 24.3 °F 12.9 °F 47% 30.30 in 10.0 mi NNW 6.9 mph - N/A   Overcast
5:54 PM 30.0 °F 25.2 °F 12.9 °F 49% 30.31 in 10.0 mi NW 4.6 mph - N/A   Overcast
6:54 PM 23.0 °F 17.0 °F 14.0 °F 68% 30.33 in 10.0 mi NW 4.6 mph - N/A   Clear
7:54 PM 23.0 °F 18.4 °F 14.0 °F 68% 30.34 in 10.0 mi WNW 3.5 mph - N/A   Clear
8:54 PM 19.9 °F 14.9 °F 12.9 °F 74% 30.34 in 10.0 mi NNW 3.5 mph - N/A   Partly Cloudy
9:54 PM 19.9 °F - 14.0 °F 78% 30.34 in 10.0 mi Calm Calm - N/A   Clear
10:54 PM 21.2 °F - 12.2 °F 68% 30.26 in 10.0 mi Calm Calm - N/A   Clear
11:54 PM 21.9 °F - 12.9 °F 68% 30.35 in 10.0 mi Calm Calm - N/A   Partly Cloudy